Location: Unspecified
(47.1121°N, 116.3927°W)
Time: 20:11:28
(UTC-07:00)

Resurs 1-4 Rocket - Visible Passes

Search period start: 27 May 2018 00:00
Search period end: 06 June 2018 00:00
Orbit: 799 x 814 km, 98.5° (Epoch: 27 May)

Date Brightness Start Highest point End Pass type
(mag) Time Alt. Az. Time Alt. Az. Time Alt. Az.
27 May 2.5 02:37:03 10° NNE 02:42:19 60° E 02:45:59 20° S visible
27 May 3.6 04:17:41 10° N 04:21:45 23° WNW 04:25:49 10° WSW visible
28 May 3.2 02:12:42 10° NNE 02:17:37 37° E 02:21:07 17° SSE visible
28 May 3.0 03:52:38 10° N 03:57:24 34° WNW 04:02:09 10° SW visible
29 May 3.9 01:48:37 10° NE 01:52:50 23° E 01:56:17 13° SE visible
29 May 2.4 03:27:48 10° N 03:32:59 54° WNW 03:37:22 14° SW visible
30 May 4.4 01:25:04 10° NE 01:27:57 15° E 01:30:49 10° ESE visible
30 May 2.1 03:03:07 10° NNE 03:08:27 84° WNW 03:12:31 18° SSW visible
31 May 2.4 02:38:34 10° NNE 02:43:51 62° ESE 02:47:40 19° S visible
01 Jun 3.1 02:14:13 10° NNE 02:19:10 38° E 02:22:49 17° SSE visible
01 Jun 3.1 03:54:11 10° N 03:58:55 34° WNW 04:03:38 10° SW visible
02 Jun 3.8 01:50:06 10° NE 01:54:23 24° E 01:57:58 13° SE visible
02 Jun 2.5 03:29:20 10° N 03:34:30 52° WNW 03:39:03 13° SW visible
03 Jun 4.4 01:26:29 10° NE 01:29:30 15° E 01:32:31 10° ESE visible
03 Jun 2.1 03:04:38 10° NNE 03:09:59 82° WNW 03:14:12 17° SSW visible
04 Jun 2.4 02:40:05 10° NNE 02:45:23 64° ESE 02:49:20 18° S visible
05 Jun 3.1 02:15:42 10° NNE 02:20:42 40° E 02:24:29 16° SSE visible
05 Jun 3.1 03:55:44 10° N 04:00:26 33° WNW 04:05:07 10° SW visible
